Vorticity
5 4 2 2 4 5 4 4 4 5 6 5 5 9 9 17 5 9 4 0 4 6 4 7 7 8 -0 9 5 -4 8 -2 2 4 12 8 9 9 8 11 5 7 10 3 5
8 8 7 6 6 5 5 4 3 4 5 6 4 6 6 11 16 4 3 6 9 8 7 5 5 9 1 3 11 -0 -3 1 9 7 2 6 7 9 9 8 6 9 5 2 8
5 5 6 7 7 8 7 5 4 3 4 6 6 5 6 4 10 15 6 4 14 8 2 2 3 10 12 2 8 1 4 3 1 4 10 10 8 8 8 6 6 6 9 3 2
7 7 6 6 6 7 8 8 6 4 4 5 5 6 6 5 5 13 15 7 4 16 8 -1 -1 2 21 11 8 5 6 7 4 7 4 5 22 5 5 8 6 8 6 7 2
8 8 8 10 10 10 9 9 8 7 6 7 7 4 7 7 8 6 12 17 6 2 14 13 7 -0 10 12 -0 0 4 4 6 13 6 6 9 16 7 6 7 7 9 7 8
8 6 8 8 2 4 7 10 10 8 8 9 7 7 6 6 6 10 12 13 22 6 1 14 12 5 1 3 2 7 8 -2 2 2 8 7 9 8 10 10 9 8 11 12 11
3 3 9 10 4 1 3 6 8 10 7 7 7 7 6 6 7 8 6 11 9 20 5 3 11 12 0 5 3 3 9 6 -12 9 4 5 9 4 8 8 7 7 9 11 13
5 4 4 3 4 7 10 7 7 8 9 9 7 8 7 4 6 7 6 6 12 12 15 5 7 5 9 2 6 6 7 10 -4 11 6 2 -3 6 5 8 6 9 13 13 14
3 5 4 5 4 4 2 4 9 6 7 9 9 8 8 6 5 8 6 6 4 11 21 11 5 4 9 15 4 10 11 8 -1 -1 9 9 1 3 2 2 3 6 11 17 12
7 8 6 3 5 6 5 5 3 5 7 5 5 6 10 10 6 4 9 7 6 3 7 19 14 5 9 8 13 7 10 12 7 0 14 9 6 -1 -3 2 5 3 8 14 9
16 18 14 10 8 2 7 5 6 2 4 6 3 10 9 7 8 7 7 3 7 8 5 5 11 19 8 5 15 10 19 12 2 -0 7 12 -1 -1 0 6 10 6 6 10 11
6 9 12 17 18 12 8 3 6 5 6 4 3 2 5 7 7 6 6 6 1 3 9 10 13 20 16 10 9 8 6 15 9 -2 1 0 7 4 8 6 10 3 7 5 8
5 10 11 3 9 14 16 12 6 7 6 7 6 2 4 3 9 7 4 7 7 5 6 8 1 7 12 12 8 8 13 14 6 1 2 1 5 3 7 1 5 8 7 6 7
4 2 2 8 10 2 8 15 16 12 8 7 8 6 5 2 3 7 8 5 6 4 6 6 7 4 6 10 8 7 7 5 15 -1 4 1 3 15 6 6 -1 9 10 8 9
6 10 10 2 14 9 4 3 11 16 15 11 8 5 8 4 5 6 6 8 5 1 10 -5 7 11 5 14 16 19 9 10 2 12 5 2 14 -7 20 -0 2 -1 8 7 9
13 7 3 10 11 13 17 10 2 5 15 12 13 8 9 15 5 4 7 3 4 7 7 4 5 7 5 5 7 16 10 6 10 2 4 14 10 16 -3 5 11 -0 6 9 7
50 48 45 35 25 15 10 15 15 6 3 15 10 5 7 11 12 12 6 6 4 6 8 5 6 5 0 7 4 9 13 7 4 -3 4 11 -0 32 14 19 3 3 6 10 10
7 11 30 48 46 46 36 25 20 19 3 2 7 11 15 9 7 9 13 12 4 3 5 6 10 8 2 3 6 10 13 12 2 8 9 8 13 10 27 10 4 1 -0 8 9
18 18 24 44 29 34 45 44 32 10 12 11 7 7 9 12 13 8 11 11 14 11 3 6 7 4 7 7 5 9 4 24 0 6 -9 14 19 20 36 25 7 -1 3 13 10
14 16 36 37 18 23 29 29 39 31 21 19 18 4 4 3 11 9 10 4 13 12 12 3 6 2 2 4 2 4 9 9 9 7 7 8 11 13 35 21 3 4 -1 18 10
-0 8 33 39 12 25 19 34 37 41 24 16 10 8 8 12 14 18 4 7 6 7 9 8 5 6 6 9 5 5 2 4 7 10 7 6 4 20 21 29 17 16 7 9 16
12 1 21 39 17 22 8 33 36 35 34 22 17 14 16 12 16 11 8 9 7 7 5 10 8 9 4 7 7 -0 9 4 1 3 3 2 9 15 6 16 16 4 8 6 1
17 2 6 32 22 18 12 26 21 42 34 23 20 23 19 11 13 6 6 9 10 6 6 5 8 9 6 11 2 5 -1 5 5 1 2 4 4 -6 18 15 15 12 6 5 -2
7 9 4 15 27 24 13 28 7 20 45 36 29 22 13 23 19 12 11 10 8 8 4 7 7 3 11 16 30 10 4 3 2 2 2 2 0 7 10 17 16 16 8 8 9
14 6 4 10 17 23 20 13 25 11 24 51 39 53 47 9 10 19 15 9 7 7 8 5 4 6 6 -5 -1 7 1 6 3 4 4 2 6 3 -3 6 23 18 10 11 4
19 11 6 8 15 24 21 17 16 14 12 19 44 -5 24 76 9 4 8 11 8 5 4 9 5 2 2 9 7 2 6 9 3 6 7 3 5 6 5 12 -15 24 16 15 10
10 19 3 8 12 23 24 19 13 21 15 13 43 -2 9 25 66 11 16 17 11 10 5 3 5 5 4 3 6 10 6 5 3 6 5 -1 -8 2 6 6 9 6 10 21 10
Height
5882 5881 5880 5879 5877 5877 5876 5875 5874 5873 5873 5873 5871 5872 5871 5872 5873 5873 5873 5876 5879 5880 5881 5883 5884 5887 5888 5888 5889 5889 5892 5894 5894 5894 5894 5894 5893 5892 5892 5893 5894 5894 5896 5897 5898
5879 5878 5877 5876 5875 5874 5873 5872 5871 5870 5870 5870 5870 5869 5870 5870 5871 5871 5873 5873 5876 5877 5880 5881 5882 5884 5886 5888 5888 5888 5891 5893 5894 5895 5894 5893 5893 5893 5893 5893 5893 5894 5895 5896 5898
5876 5874 5873 5872 5871 5871 5870 5869 5868 5867 5867 5867 5867 5866 5866 5868 5868 5869 5870 5872 5873 5874 5875 5877 5879 5882 5884 5885 5887 5889 5890 5891 5893 5894 5895 5894 5892 5892 5892 5893 5894 5895 5895 5895 5897
5871 5870 5869 5868 5867 5866 5866 5866 5864 5863 5863 5863 5863 5862 5863 5864 5866 5865 5866 5868 5870 5872 5874 5875 5877 5881 5883 5884 5885 5888 5890 5891 5892 5893 5894 5894 5893 5893 5892 5892 5893 5894 5895 5896 5896
5865 5865 5864 5863 5862 5861 5861 5860 5859 5859 5859 5860 5859 5858 5859 5860 5862 5860 5861 5863 5865 5868 5871 5873 5875 5877 5880 5882 5885 5886 5888 5890 5892 5893 5893 5893 5893 5893 5892 5892 5892 5892 5893 5894 5896
5861 5859 5858 5858 5857 5857 5856 5854 5854 5854 5854 5855 5854 5854 5854 5855 5857 5856 5857 5858 5861 5863 5866 5868 5871 5873 5874 5878 5882 5884 5887 5889 5891 5892 5892 5893 5893 5894 5894 5893 5893 5892 5892 5892 5895
5854 5853 5852 5852 5851 5851 5850 5849 5847 5848 5849 5848 5849 5849 5850 5850 5851 5852 5853 5854 5856 5858 5861 5863 5865 5868 5871 5873 5876 5881 5884 5887 5890 5892 5892 5893 5893 5893 5893 5893 5893 5892 5891 5891 5893
5847 5845 5844 5844 5843 5843 5843 5843 5842 5841 5842 5843 5843 5844 5844 5845 5847 5847 5848 5850 5851 5853 5855 5858 5860 5863 5867 5869 5873 5876 5881 5885 5889 5891 5891 5891 5893 5893 5892 5893 5892 5892 5891 5891 5892
5838 5836 5835 5835 5835 5835 5835 5835 5835 5834 5835 5836 5837 5837 5838 5839 5841 5843 5843 5846 5846 5849 5851 5854 5857 5860 5862 5866 5869 5872 5878 5882 5885 5888 5889 5889 5891 5892 5892 5892 5891 5891 5890 5891 5891
5828 5826 5824 5824 5824 5824 5824 5825 5825 5826 5827 5828 5829 5830 5833 5834 5834 5837 5837 5840 5842 5844 5846 5849 5852 5855 5858 5861 5864 5868 5874 5878 5882 5885 5885 5887 5888 5890 5891 5891 5891 5890 5889 5890 5891
5816 5814 5812 5810 5811 5812 5812 5813 5816 5817 5817 5819 5822 5821 5824 5826 5827 5829 5831 5833 5836 5840 5843 5845 5847 5851 5855 5857 5862 5864 5868 5874 5878 5880 5883 5885 5886 5887 5888 5889 5890 5890 5889 5889 5891
5804 5802 5799 5797 5796 5796 5798 5799 5801 5803 5808 5808 5810 5814 5815 5817 5819 5821 5824 5828 5831 5836 5836 5840 5844 5845 5847 5850 5856 5859 5864 5870 5873 5876 5879 5881 5883 5885 5886 5887 5888 5888 5888 5887 5888
5790 5787 5785 5782 5781 5780 5781 5784 5785 5788 5791 5798 5798 5803 5804 5807 5810 5814 5817 5820 5823 5825 5831 5835 5837 5837 5840 5843 5847 5853 5859 5865 5869 5870 5874 5876 5879 5881 5884 5883 5885 5887 5887 5887 5887
5774 5770 5768 5766 5767 5764 5763 5767 5768 5772 5774 5782 5785 5789 5793 5795 5799 5804 5809 5811 5813 5819 5825 5827 5829 5831 5834 5838 5842 5847 5853 5856 5859 5861 5867 5872 5874 5878 5880 5881 5882 5884 5887 5887 5888
5753 5748 5745 5745 5746 5746 5747 5748 5750 5755 5756 5759 5770 5775 5780 5783 5790 5793 5800 5799 5806 5811 5814 5824 5825 5828 5831 5837 5837 5845 5845 5849 5854 5856 5860 5862 5866 5870 5874 5876 5880 5883 5883 5885 5887
5722 5721 5720 5720 5720 5723 5725 5727 5731 5737 5735 5740 5749 5758 5764 5770 5774 5779 5787 5791 5796 5800 5804 5812 5816 5817 5825 5825 5830 5833 5837 5842 5846 5850 5846 5857 5860 5866 5868 5874 5879 5880 5880 5881 5885
5695 5690 5686 5685 5690 5694 5698 5704 5708 5712 5718 5722 5728 5738 5747 5754 5759 5765 5772 5778 5782 5789 5795 5802 5807 5812 5814 5817 5821 5825 5829 5833 5836 5836 5837 5852 5853 5861 5861 5870 5875 5876 5877 5878 5881
5683 5674 5664 5657 5654 5659 5665 5673 5681 5686 5687 5703 5713 5721 5729 5737 5744 5749 5755 5762 5770 5778 5783 5791 5796 5804 5809 5812 5817 5819 5824 5826 5828 5834 5839 5843 5843 5854 5859 5865 5869 5870 5872 5874 5877
5674 5662 5651 5640 5635 5633 5637 5642 5647 5648 5666 5683 5692 5699 5707 5718 5726 5735 5742 5749 5756 5766 5773 5779 5787 5794 5801 5807 5810 5813 5813 5829 5827 5830 5834 5838 5842 5847 5853 5857 5863 5866 5869 5871 5875
5668 5653 5639 5628 5623 5620 5619 5619 5619 5628 5642 5654 5666 5674 5682 5693 5708 5717 5724 5731 5741 5749 5756 5765 5773 5779 5789 5797 5800 5803 5815 5814 5817 5821 5827 5834 5838 5842 5848 5853 5858 5862 5866 5870 5873
5658 5644 5628 5618 5614 5609 5607 5604 5603 5606 5614 5624 5634 5648 5661 5675 5686 5697 5702 5715 5724 5730 5740 5752 5762 5767 5775 5784 5790 5794 5798 5804 5812 5818 5823 5830 5835 5838 5844 5848 5854 5858 5863 5868 5872
5649 5638 5623 5611 5607 5601 5597 5592 5589 5588 5593 5603 5612 5626 5640 5653 5666 5676 5685 5695 5707 5718 5733 5741 5748 5754 5767 5774 5781 5788 5794 5801 5803 5812 5817 5823 5831 5832 5838 5842 5846 5851 5856 5861 5867
5643 5632 5620 5608 5601 5595 5589 5585 5582 5579 5580 5586 5593 5601 5616 5633 5648 5656 5667 5680 5691 5702 5712 5723 5736 5744 5751 5760 5766 5773 5784 5789 5796 5806 5810 5817 5824 5826 5832 5837 5841 5844 5847 5851 5857
5634 5623 5613 5604 5596 5590 5585 5579 5576 5573 5571 5573 5579 5585 5597 5614 5625 5637 5648 5662 5675 5686 5700 5711 5722 5731 5743 5755 5757 5763 5771 5778 5785 5795 5803 5808 5816 5821 5827 5831 5835 5839 5843 5845 5850
5628 5618 5606 5598 5589 5582 5578 5575 5572 5569 5566 5566 5570 5575 5581 5598 5607 5619 5628 5645 5658 5670 5682 5694 5707 5717 5727 5731 5741 5750 5761 5769 5774 5789 5793 5804 5809 5816 5821 5826 5829 5832 5836 5840 5844
5621 5612 5603 5593 5584 5576 5571 5569 5566 5564 5563 5562 5563 5567 5569 5578 5587 5597 5613 5626 5637 5653 5665 5678 5690 5702 5713 5724 5732 5738 5748 5757 5764 5777 5786 5796 5801 5807 5813 5819 5823 5828 5832 5835 5840
5616 5607 5598 5589 5581 5573 5567 5564 5561 5559 5558 5557 5557 5560 5564 5567 5575 5585 5599 5613 5626 5639 5649 5663 5674 5689 5702 5711 5718 5724 5739 5750 5755 5766 5775 5787 5793 5802 5807 5814 5819 5822 5826 5829 5834